Centerview, MO

7:56 PM CDT on August 29, 2016 (GMT -0500)
Skyhaven

Weather History for KRCM - April, 2013

Change the Weather History Date:

Thursday, April 25, 2013

  Actual Average (KSZL) Record (KSZL)
Temperature  
Mean Temperature 50 °F -  
Max Temperature 64 °F 66 °F 89 °F (2012)
Min Temperature 35 °F 47 °F 35 °F (2013)
Degree Days  
Heating Degree Days 16    
Moisture  
Dew Point 36 °F    
Average Humidity 59    
Maximum Humidity 87    
Minimum Humidity 37    
Precipitation  
Precipitation 0.01 in - - ()
Sea Level Pressure  
Sea Level Pressure 30.26 in    
Wind  
Wind Speed 6 mph (South)    
Max Wind Speed 12 mph    
Max Gust Speed -    
Visibility 10 miles    
Events      
Averages and records for this station are not official NWS values.
T = Trace of Precipitation, MM = Missing Value Source: NWS Daily Summary

Daily Weather History Graph

Daily Weather History Graph

Search for Another Location

Airport or City:

Trip Planner

Search our weather history database for the weather conditions in past years. The results will help you decide how hot, cold, wet, or windy it might be!

Date:

Astronomy

Apr. 25, 2013 Rise Set
Actual Time 6:24 AM CDT 8:02 PM CDT
Civil Twilight 5:56 AM CDT 8:30 PM CDT
Nautical Twilight 5:22 AM CDT 9:04 PM CDT
Astronomical Twilight 4:46 AM CDT 9:40 PM CDT
Moon 8:15 PM CDT (4/25) 6:08 AM CDT (4/25)
Length of Visible Light 14h 33m
Length of Day
13h 37m
Full, 100% of the Moon is Illuminated
Apr 25
Full
Apr 25
Full
May 2
Last Quarter
May 9
New
May 17
First Quarter

Hourly Weather History & Observations

Time (CDT) Temp. Windchill Dew Point Humidity Pressure Visibility Wind Dir Wind Speed Gust Speed Precip Events Conditions
12:15 AM 42.8 °F 36.6 °F 32.0 °F 66% 30.24 in 10.0 mi SSW 11.5 mph - N/A   Clear
12:35 AM 42.8 °F 37.5 °F 32.0 °F 66% 30.24 in 10.0 mi SSW 9.2 mph - N/A   Clear
12:55 AM 41.0 °F 35.2 °F 32.0 °F 70% 30.24 in 10.0 mi SSW 9.2 mph - N/A   Clear
1:15 AM 41.0 °F 35.8 °F 32.0 °F 70% 30.25 in 10.0 mi SSW 8.1 mph - N/A   Clear
1:35 AM 41.0 °F 35.2 °F 32.0 °F 70% 30.25 in 10.0 mi SSW 9.2 mph - N/A   Clear
1:55 AM 39.2 °F 34.2 °F 32.0 °F 75% 30.25 in 10.0 mi SSW 6.9 mph - N/A   Clear
2:15 AM 39.2 °F 33.0 °F 32.0 °F 75% 30.25 in 10.0 mi SSW 9.2 mph - N/A   Clear
2:35 AM 39.2 °F 33.6 °F 32.0 °F 75% 30.25 in 10.0 mi SSW 8.1 mph - N/A   Clear
2:55 AM 39.2 °F 34.2 °F 32.0 °F 75% 30.25 in 10.0 mi SW 6.9 mph - N/A   Clear
3:15 AM 39.2 °F 34.2 °F 32.0 °F 75% 30.28 in 10.0 mi WNW 6.9 mph - N/A   Clear
3:35 AM 37.4 °F 33.8 °F 32.0 °F 81% 30.27 in 10.0 mi West 4.6 mph - N/A   Clear
3:55 AM 37.4 °F - 32.0 °F 81% 30.27 in 10.0 mi Calm Calm - N/A   Clear
4:15 AM 37.4 °F 32.8 °F 32.0 °F 81% 30.27 in 10.0 mi South 5.8 mph - N/A   Clear
4:35 AM 37.4 °F 34.9 °F 32.0 °F 81% 30.26 in 10.0 mi SSW 3.5 mph - N/A   Clear
4:55 AM 35.6 °F 32.8 °F 32.0 °F 87% 30.27 in 10.0 mi SW 3.5 mph - N/A   Clear
5:15 AM 37.4 °F - 32.0 °F 81% 30.27 in 10.0 mi Calm Calm - N/A   Clear
5:35 AM 37.4 °F - 32.0 °F 81% 30.28 in 10.0 mi Calm Calm - N/A   Clear
5:55 AM 37.4 °F - 32.0 °F 81% 30.28 in 10.0 mi Calm Calm - N/A   Clear
6:15 AM 37.4 °F - 32.0 °F 81% 30.29 in 10.0 mi Calm Calm - N/A   Clear
6:35 AM 37.4 °F 34.9 °F 32.0 °F 81% 30.29 in 10.0 mi SSW 3.5 mph - N/A   Clear
6:55 AM 35.6 °F - 32.0 °F 87% 30.30 in 10.0 mi Calm Calm - N/A   Clear
7:15 AM 35.6 °F 32.8 °F 32.0 °F 87% 30.30 in 10.0 mi South 3.5 mph - N/A   Clear
7:35 AM 37.4 °F 33.8 °F 32.0 °F 81% 30.31 in 10.0 mi South 4.6 mph - N/A   Clear
7:55 AM 41.0 °F - 33.8 °F 76% 30.31 in 10.0 mi Calm Calm - N/A   Clear
8:15 AM 42.8 °F 41.1 °F 33.8 °F 70% 30.32 in 10.0 mi SSW 3.5 mph - N/A   Clear
8:35 AM 44.6 °F 43.1 °F 33.8 °F 66% 30.32 in 10.0 mi SW 3.5 mph - N/A   Clear
8:55 AM 44.6 °F - 33.8 °F 66% 30.32 in 10.0 mi Calm Calm - N/A   Clear
9:15 AM 46.4 °F 45.2 °F 35.6 °F 66% 30.32 in 10.0 mi NW 3.5 mph - N/A   Clear
9:35 AM 48.2 °F - 35.6 °F 62% 30.33 in 10.0 mi SSE 3.5 mph - N/A   Clear
9:55 AM 50.0 °F - 33.8 °F 54% 30.32 in 10.0 mi Calm Calm - N/A   Clear
10:15 AM 51.8 °F - 35.6 °F 54% 30.32 in 10.0 mi SE 3.5 mph - N/A   Clear
10:55 AM 53.6 °F - 37.4 °F 54% 30.33 in 10.0 mi SSE 5.8 mph - 0.01 in   Clear
11:55 AM 55.4 °F - 33.8 °F 44% 30.33 in 10.0 mi Calm Calm - N/A   Clear
12:15 PM 55.4 °F - 37.4 °F 51% 30.33 in 10.0 mi NNE 3.5 mph - N/A   Clear
12:35 PM 57.2 °F - 35.6 °F 44% 30.32 in 10.0 mi Calm Calm - N/A   Clear
12:55 PM 59.0 °F - 35.6 °F 42% 30.32 in 10.0 mi South 4.6 mph - N/A   Clear
1:15 PM 59.0 °F - 37.4 °F 45% 30.31 in 10.0 mi South 4.6 mph - N/A   Clear
1:35 PM 60.8 °F - 35.6 °F 39% 30.30 in 10.0 mi SSE 4.6 mph - N/A   Clear
1:55 PM 60.8 °F - 35.6 °F 39% 30.30 in 10.0 mi SSE 4.6 mph - N/A   Clear
2:15 PM 60.8 °F - 35.6 °F 39% 30.29 in 10.0 mi SSE 3.5 mph - N/A   Clear
2:35 PM 60.8 °F - 35.6 °F 39% 30.28 in 10.0 mi ESE 3.5 mph - N/A   Clear
2:55 PM 62.6 °F - 37.4 °F 39% 30.27 in 10.0 mi SSE 3.5 mph - N/A   Clear
3:15 PM 62.6 °F - 37.4 °F 39% 30.26 in 10.0 mi Calm Calm - N/A   Clear
3:35 PM 62.6 °F - 37.4 °F 39% 30.25 in 10.0 mi South 8.1 mph - N/A   Clear
3:55 PM 64.4 °F - 37.4 °F 37% 30.25 in 10.0 mi SSE 4.6 mph - N/A   Clear
4:15 PM 64.4 °F - 37.4 °F 37% 30.24 in 10.0 mi SSE 4.6 mph - N/A   Clear
4:35 PM 64.4 °F - 37.4 °F 37% 30.23 in 10.0 mi SW 8.1 mph - N/A   Clear
4:55 PM 64.4 °F - 37.4 °F 37% 30.23 in 10.0 mi South 10.4 mph - N/A   Clear
5:35 PM 64.4 °F - 39.2 °F 40% 30.22 in 10.0 mi South 6.9 mph - N/A   Clear
5:55 PM 64.4 °F - 39.2 °F 40% 30.22 in 10.0 mi SSE 10.4 mph - N/A   Clear
6:15 PM 64.4 °F - 37.4 °F 37% 30.22 in 10.0 mi South 9.2 mph - N/A   Clear
6:35 PM 62.6 °F - 39.2 °F 42% 30.21 in 10.0 mi SSE 8.1 mph - N/A   Clear
7:15 PM 60.8 °F - 41.0 °F 48% 30.20 in 10.0 mi SSE 5.8 mph - N/A   Clear
7:35 PM 59.0 °F - 41.0 °F 51% 30.20 in 10.0 mi SSE 6.9 mph - N/A   Clear
7:55 PM 59.0 °F - 41.0 °F 51% 30.19 in 10.0 mi SSE 6.9 mph - N/A   Clear
8:15 PM 59.0 °F - 41.0 °F 51% 30.20 in 10.0 mi SSE 5.8 mph - N/A   Clear
8:35 PM 55.4 °F - 39.2 °F 54% 30.20 in 10.0 mi SSE 5.8 mph - N/A   Clear
8:55 PM 55.4 °F - 41.0 °F 58% 30.20 in 10.0 mi SSE 5.8 mph - N/A   Clear
9:15 PM 55.4 °F - 39.2 °F 54% 30.20 in 10.0 mi SSE 5.8 mph - N/A   Clear
9:35 PM 55.4 °F - 39.2 °F 54% 30.21 in 10.0 mi SSE 5.8 mph - N/A   Clear
9:55 PM 53.6 °F - 39.2 °F 58% 30.21 in 10.0 mi SSE 5.8 mph - N/A   Clear
10:15 PM 53.6 °F - 41.0 °F 62% 30.21 in 10.0 mi SE 5.8 mph - N/A   Scattered Clouds
10:35 PM 53.6 °F - 41.0 °F 62% 30.20 in 10.0 mi SE 5.8 mph - N/A   Overcast
10:55 PM 53.6 °F - 41.0 °F 62% 30.19 in 10.0 mi SE 5.8 mph - N/A   Overcast
11:15 PM 55.4 °F - 39.2 °F 54% 30.19 in 10.0 mi SE 6.9 mph - N/A   Overcast
11:35 PM 55.4 °F - 37.4 °F 51% 30.18 in 10.0 mi SE 5.8 mph - N/A   Overcast
11:55 PM 55.4 °F - 37.4 °F 51% 30.19 in 10.0 mi SE 5.8 mph - N/A   Mostly Cloudy